RH
21 22 21 19 17 17 18 19 19 20 22 23 23 20 16 12 9 7 6 6 6 7 8 9 10 10 9 7 7 6 6 7 8 9 8 7 7 6 6 5 6 5 6 5 5 6 6 6 6 7 7 7 7 7 7 7 7 8 11 11 10 13 14 14 14 12 12 11 12 14 17 19 18 17 16 15 16 15 15 14 14 13 12 12 12 11 11 10
20 21 21 19 17 18 18 18 18 19 20 21 23 24 24 21 18 14 11 8 7 6 6 6 7 7 8 8 7 7 6 6 6 7 6 6 6 6 6 6 6 6 6 6 5 6 6 6 6 7 6 6 7 7 7 7 7 10 13 11 12 15 13 12 12 11 11 10 11 13 15 17 16 15 14 14 15 14 14 14 13 13 13 13 13 12 12 11
20 20 20 19 18 19 18 18 18 19 19 20 21 22 24 24 24 22 19 16 12 10 8 6 5 5 5 5 6 6 6 6 6 6 6 6 6 6 6 5 5 5 5 5 5 5 6 6 6 6 6 6 6 7 8 7 7 9 11 11 14 16 13 11 11 10 10 10 11 12 14 17 16 14 12 12 13 13 14 13 12 12 12 12 12 12 12 12
23 21 21 20 20 20 20 18 18 18 18 19 20 21 22 23 24 24 23 22 20 18 15 12 9 6 5 5 5 5 5 6 6 6 6 6 6 6 6 6 5 5 5 5 5 6 6 6 6 6 6 6 7 7 7 7 8 8 9 11 14 13 11 9 9 10 10 10 10 11 14 15 14 13 13 11 12 14 14 12 11 11 10 10 11 12 12 12
28 27 26 25 24 24 23 21 19 19 19 19 19 20 20 21 22 23 23 23 23 23 22 20 17 14 11 8 6 5 5 6 7 6 6 5 6 5 5 6 5 6 5 6 6 6 6 6 6 6 6 7 7 7 8 8 8 9 10 11 12 11 10 9 9 10 10 10 10 13 13 12 13 13 13 12 13 14 13 10 10 10 10 10 11 11 12 13
30 30 29 28 28 27 26 25 24 23 23 22 21 20 20 20 19 20 21 21 22 22 23 23 23 22 20 17 13 10 8 7 7 7 6 5 6 6 6 6 6 6 6 6 6 6 6 7 7 7 7 8 9 9 8 9 9 10 11 11 11 11 10 9 10 10 10 10 10 12 12 11 11 11 12 13 13 13 11 11 11 11 11 11 11 11 12 12
30 29 28 28 28 28 27 27 26 26 25 24 23 23 22 21 20 19 19 19 18 18 19 20 22 23 23 24 22 19 17 14 9 7 6 6 6 6 6 7 6 7 7 7 7 7 7 7 8 8 8 9 10 10 10 10 10 10 12 12 11 11 10 10 10 10 10 10 10 10 10 11 11 10 11 12 11 11 12 12 11 12 12 11 12 12 12 13
29 28 27 28 27 26 26 26 26 25 25 26 26 26 25 25 24 22 21 19 18 16 16 17 18 20 21 23 24 23 23 21 17 12 9 7 6 6 7 7 7 7 7 7 7 7 7 8 8 8 9 10 10 11 11 11 12 12 12 12 11 10 10 10 10 10 10 10 10 10 10 10 10 11 11 11 11 11 12 12 12 12 12 13 13 12 13 13
31 30 29 28 27 26 26 25 25 25 25 26 26 26 26 26 26 25 23 22 20 19 17 16 16 17 18 20 21 22 23 22 22 20 15 11 8 7 7 7 7 7 7 7 8 8 8 8 9 9 10 11 11 11 12 11 13 13 12 12 11 10 10 10 10 10 10 10 10 10 11 10 10 11 12 12 12 13 13 13 13 13 13 14 13 13 14 14
32 32 31 29 29 27 27 26 26 25 25 25 25 25 26 25 26 25 25 24 23 23 21 20 19 19 18 18 18 20 21 20 21 22 20 17 14 11 9 8 8 8 8 8 8 8 8 9 9 10 10 11 11 12 13 11 12 13 11 11 11 10 11 11 11 11 11 11 11 11 11 11 11 12 13 14 14 14 14 14 14 14 14 15 14 14 15 16
30 30 29 27 27 26 26 26 27 28 29 29 29 29 29 29 28 27 26 25 24 24 23 22 21 20 20 19 19 20 19 18 19 20 20 20 18 16 13 11 9 8 8 8 8 9 9 9 10 10 11 11 11 12 12 11 12 11 10 11 12 12 12 12 12 11 12 11 11 12 12 12 13 14 16 16 15 15 15 14 14 15 15 15 15 16 16 17
25 26 25 25 26 27 28 30 31 33 34 35 34 33 33 32 31 29 28 27 24 23 21 20 18 18 18 19 21 22 21 19 18 17 18 19 19 19 18 15 12 10 9 9 9 9 9 10 10 10 11 11 12 11 11 12 11 11 11 12 15 16 14 14 14 12 12 12 13 13 13 16 17 16 18 17 15 15 15 15 15 16 16 16 16 17 18 18
25 26 26 25 27 30 32 32 31 32 32 32 32 32 32 31 30 28 27 26 24 22 20 18 17 16 17 19 20 20 21 22 20 17 15 15 17 19 19 18 15 12 10 10 10 10 9 9 9 10 11 11 12 11 11 11 10 11 13 14 16 17 17 16 15 14 13 14 14 14 16 20 19 18 18 17 16 15 15 16 16 17 18 18 18 18 19 20
27 28 27 26 30 34 34 33 31 31 31 30 30 30 30 30 29 28 27 26 24 23 21 20 20 19 19 21 21 20 21 22 22 19 15 13 14 17 19 20 18 15 12 11 11 10 10 10 10 10 11 11 12 11 13 16 15 15 15 19 20 16 18 19 16 15 14 14 15 15 17 19 18 18 18 17 17 16 17 17 18 19 19 19 19 19 21 22
29 31 32 32 34 35 35 34 33 33 32 31 31 30 30 29 28 26 26 25 23 23 22 23 22 22 22 22 22 22 23 23 23 20 16 14 14 15 17 19 19 17 15 12 11 11 11 10 10 11 11 11 13 14 17 21 24 21 15 20 24 18 20 21 17 17 15 15 16 15 19 20 18 20 21 19 18 18 18 18 19 20 21 21 22 22 24 26
34 35 37 36 35 35 35 35 34 34 32 32 31 30 28 28 26 24 23 22 21 22 22 23 22 21 21 22 22 22 23 23 22 20 18 17 16 17 18 19 19 18 16 13 12 12 11 11 11 13 12 12 18 20 18 20 24 26 18 18 22 19 20 21 18 20 18 18 19 19 21 22 20 22 23 21 19 20 20 20 22 23 24 24 25 26 28 29
37 37 38 38 37 36 34 34 33 32 31 30 28 26 26 27 26 24 22 21 21 21 21 21 21 21 21 21 20 21 21 21 20 19 19 18 18 19 19 20 19 17 16 13 12 12 11 12 12 14 15 18 25 24 18 19 22 26 25 22 24 24 24 25 24 23 23 22 22 22 22 21 22 24 25 22 20 21 22 23 25 26 28 29 30 31 32 33
35 36 38 38 36 35 33 33 32 31 29 27 25 23 23 26 27 27 26 27 28 27 26 25 25 24 24 22 21 19 18 17 17 18 19 20 21 21 20 20 19 17 16 13 12 13 12 13 14 18 21 23 25 22 19 23 23 23 27 27 29 30 28 28 27 26 25 24 23 22 22 22 25 26 27 26 23 23 24 26 28 30 32 33 34 36 36 37
30 32 34 35 35 35 35 34 34 33 30 27 25 23 23 25 26 26 26 28 30 31 32 32 32 32 30 28 27 24 22 20 20 21 21 22 23 23 23 21 20 18 16 14 14 15 15 16 18 21 23 23 24 24 24 29 28 27 31 31 30 30 28 26 27 28 26 24 24 24 25 27 29 28 29 29 26 25 25 27 29 31 33 35 37 38 39 40
27 29 32 33 34 34 34 33 32 31 28 27 27 25 24 24 24 24 24 25 26 27 29 30 32 33 33 33 33 34 33 32 32 31 30 30 29 29 28 26 26 25 24 25 24 24 25 27 28 27 28 30 31 32 32 33 33 31 32 31 30 29 27 26 25 29 28 25 27 29 29 31 30 29 29 29 28 28 28 29 31 33 35 38 40 41 42 42
31 31 30 28 27 26 27 27 28 28 27 28 27 26 25 26 25 25 25 26 27 28 29 30 30 30 31 32 33 34 35 34 35 35 35 35 35 35 35 34 35 35 37 39 36 35 36 36 34 35 36 35 34 35 33 31 30 28 28 27 28 28 27 26 26 30 31 26 29 32 29 30 29 29 29 29 31 32 33 33 34 36 39 42 43 43 44 44
33 29 27 25 25 26 26 28 29 28 27 26 25 26 26 27 27 26 27 29 31 31 31 30 30 30 31 31 31 31 31 30 29 29 30 30 30 30 31 32 34 34 36 38 35 35 36 33 32 34 34 33 32 32 29 28 27 26 28 27 28 29 29 28 29 31 30 26 28 31 29 30 30 29 30 31 33 36 37 36 37 40 42 44 46 45 45 46
28 27 27 27 27 28 28 29 29 29 27 25 24 23 21 22 23 22 22 25 27 27 26 26 26 27 29 28 28 28 27 27 26 25 25 24 24 25 25 26 29 30 32 31 28 27 27 28 29 30 30 28 27 28 28 28 29 27 27 27 28 29 27 27 28 29 29 27 28 29 29 31 31 30 31 32 34 37 39 39 41 43 45 47 47 47 47 47
29 28 27 27 27 28 28 29 29 28 26 22 19 15 13 14 14 14 17 20 22 22 21 22 22 23 24 24 24 26 26 26 26 24 23 22 21 22 23 24 27 28 29 30 28 25 25 27 28 29 30 26 23 27 27 25 27 29 28 26 26 27 25 27 28 28 28 29 30 30 29 30 32 34 34 34 37 40 42 44 45 47 48 49 48 48 48 49
32 31 29 28 29 29 29 28 27 24 20 16 12 9 8 9 11 14 18 21 22 21 20 19 18 19 19 19 19 22 24 25 25 25 24 23 22 24 25 24 25 26 28 30 29 26 26 27 26 26 28 26 24 26 25 23 25 29 29 28 27 27 27 29 29 28 29 29 30 31 32 33 36 38 38 38 41 44 46 49 50 52 52 51 52 52 52 53
32 32 31 31 31 29 27 24 22 20 17 14 11 9 9 10 16 19 22 27 24 18 18 17 16 17 16 15 15 16 18 19 20 21 22 21 21 23 23 23 24 25 26 27 26 25 24 25 25 24 26 28 27 25 25 27 27 27 29 30 30 29 29 31 31 31 32 32 32 34 36 38 39 42 44 44 47 49 50 52 54 56 57 57 57 57 57 59
32 33 33 31 28 25 24 22 20 19 19 16 13 12 12 16 21 21 23 30 26 18 20 19 17 17 16 16 15 15 17 16 16 17 18 17 18 19 19 21 22 22 25 25 23 22 22 24 26 26 28 30 28 26 28 30 28 27 30 33 32 30 31 32 31 34 36 34 35 37 38 41 43 45 49 49 51 54 54 56 59 61 63 63 63 64 65 68
33 35 33 27 24 25 27 25 21 21 21 20 18 16 17 22 24 24 25 27 22 20 21 19 17 18 18 18 16 16 18 17 16 17 17 17 17 17 19 21 21 22 26 23 20 21 23 24 26 28 29 29 27 28 31 30 28 29 34 35 34 32 33 34 34 38 39 37 39 41 41 44 46 47 50 51 54 59 61 61 63 66 69 71 72 73 74 76
33 31 26 23 25 28 29 26 23 23 23 24 21 19 22 25 25 28 30 24 19 21 21 19 19 19 20 21 20 17 17 18 17 17 16 17 17 17 19 20 21 24 26 21 20 22 23 26 28 28 29 29 29 32 34 32 29 32 35 35 35 36 36 36 37 40 41 43 44 44 44 47 48 48 50 53 57 62 65 66 68 71 75 78 79 80 81 83
26 23 22 25 29 29 28 28 25 24 24 23 21 22 24 25 30 34 29 22 20 21 20 19 21 22 24 26 22 18 18 18 18 17 16 17 17 17 18 19 20 25 26 23 24 24 25 30 32 30 30 30 32 33 35 36 34 33 34 33 33 36 36 38 42 40 42 50 49 44 46 50 51 52 52 56 60 64 69 71 73 76 79 83 84 85 87 90
19 22 26 29 29 30 31 30 29 27 25 23 22 23 21 25 36 36 25 21 21 21 22 23 26 27 27 26 21 19 21 21 19 19 20 20 19 19 20 20 21 26 26 25 27 27 29 34 34 32 32 32 33 32 34 38 36 34 34 33 31 34 35 38 42 40 44 51 48 45 50 52 54 56 56 60 64 67 72 76 77 80 83 87 89 91 94 97
20 26 28 28 29 31 31 29 30 26 23 21 20 19 20 24 30 28 23 21 19 21 24 25 27 28 26 23 21 21 24 22 21 22 23 24 24 22 24 25 25 25 26 26 27 27 30 32 33 33 32 31 32 31 32 36 35 33 34 34 35 41 43 43 46 48 48 46 44 47 49 49 53 59 62 65 67 70 74 78 81 84 87 90 93 96 97 98
25 28 27 26 27 28 26 25 24 19 17 16 12 13 20 23 20 19 24 23 18 20 23 24 27 27 24 22 21 23 23 22 22 23 24 27 27 27 28 30 29 27 28 29 29 29 32 32 31 31 30 31 31 31 31 34 34 34 36 37 42 49 54 56 56 54 51 46 43 47 48 49 54 60 65 66 67 72 76 80 84 87 90 93 94 96 97 97
27 27 25 23 23 23 22 20 17 13 12 10 9 15 19 17 14 17 22 22 21 22 23 25 26 23 21 21 22 24 23 22 24 24 26 28 30 31 31 31 31 30 31 33 32 31 32 31 29 29 29 31 32 33 33 34 35 38 39 40 45 49 55 59 58 55 55 51 46 45 47 53 57 60 64 65 67 73 79 83 87 89 91 93 94 96 97 97
26 24 21 20 20 19 17 14 11 9 8 6 11 18 17 14 17 19 20 22 24 23 23 24 23 22 23 23 25 25 22 24 27 26 27 30 31 33 33 32 32 32 32 35 34 32 32 31 29 30 31 32 33 35 36 35 37 40 41 42 46 48 50 55 55 52 54 56 51 48 48 53 57 58 60 63 67 73 78 83 86 89 92 94 97 98 98 97
22 20 19 18 17 15 12 9 8 7 7 8 13 18 17 16 19 20 20 23 24 24 25 25 23 24 26 26 29 27 23 25 28 26 27 30 31 33 34 33 33 33 33 34 35 34 33 32 31 32 32 33 35 37 37 38 38 40 43 43 43 44 45 49 51 47 51 56 51 45 45 49 54 57 59 63 67 71 76 80 83 88 94 96 98 99 97 96
18 18 18 16 13 11 8 7 8 8 7 11 17 20 19 18 20 22 24 25 25 25 26 24 23 24 25 27 30 29 26 26 27 26 26 28 29 31 34 34 32 34 33 32 34 34 33 34 35 33 33 35 36 38 38 38 38 41 44 41 39 41 43 46 50 51 57 60 50 42 46 51 54 58 64 68 70 72 74 78 81 86 93 97 98 97 95 94
17 17 15 12 9 8 7 8 9 8 8 15 23 25 22 20 21 24 27 28 27 26 26 25 24 25 26 27 29 30 28 26 27 27 26 27 28 30 34 35 32 34 34 31 32 34 34 36 37 35 35 36 37 38 38 36 35 37 38 35 36 40 42 44 51 58 64 66 58 47 45 53 61 66 70 72 73 74 75 76 80 85 92 98 98 94 94 95
15 13 10 8 8 8 9 10 8 9 11 19 26 26 23 23 25 27 29 30 29 28 28 27 26 27 27 25 27 30 30 27 27 28 26 26 28 30 34 34 32 34 34 31 32 35 37 39 39 36 35 35 35 36 36 34 32 31 31 32 36 40 40 41 47 53 61 68 69 60 49 54 68 72 73 75 73 74 75 77 83 89 94 98 96 93 93 95
11 9 8 8 9 10 10 9 9 13 18 21 25 26 24 26 28 29 30 31 29 26 27 27 26 27 27 26 27 28 28 29 28 27 27 26 28 31 35 36 37 37 34 32 34 38 40 41 39 35 32 31 33 33 33 32 31 31 34 37 40 42 41 42 44 47 56 66 73 73 61 56 65 69 72 76 76 76 81 86 91 96 97 97 94 92 92 93
8 9 10 9 10 10 9 11 15 21 25 25 25 29 30 30 28 28 30 31 29 26 26 27 26 26 26 26 26 25 27 30 30 28 28 28 29 32 35 38 42 41 37 36 39 39 41 42 38 34 30 30 31 31 30 31 30 32 36 39 42 43 44 49 50 48 56 62 64 71 68 60 64 71 73 76 76 76 82 87 91 94 95 95 93 92 90 89
9 12 11 9 11 10 10 16 22 25 27 27 26 29 32 31 28 26 27 27 27 26 24 24 25 26 26 25 24 25 26 29 30 28 28 30 32 34 36 39 42 42 39 39 40 37 37 39 36 32 29 28 30 30 30 32 32 32 35 39 43 45 47 53 55 52 54 54 55 65 70 67 68 71 71 71 70 72 78 84 90 94 95 95 93 90 87 82
11 12 11 10 11 10 11 18 24 26 28 28 26 27 28 27 26 24 24 24 23 22 22 22 23 23 24 25 25 25 25 26 28 28 28 31 33 34 37 39 40 41 40 39 38 33 33 35 33 30 29 28 27 27 28 29 31 34 38 41 45 49 50 52 54 52 53 55 60 65 65 66 68 67 67 71 70 71 75 78 83 87 88 90 88 83 78 73
11 11 11 11 10 10 14 20 24 29 30 26 25 26 25 24 23 23 24 24 23 22 22 22 22 21 23 26 26 26 25 25 27 29 30 31 32 35 39 38 38 39 38 36 33 30 30 31 32 36 39 36 33 31 29 28 31 39 44 46 49 52 52 51 49 51 54 56 61 65 62 63 67 64 62 66 66 66 70 72 76 79 82 84 81 73 68 68
11 11 11 11 11 12 16 20 23 29 30 26 24 25 23 22 21 22 23 23 22 22 22 22 21 22 25 26 27 29 28 26 27 29 31 33 35 37 39 37 36 35 34 33 28 26 29 29 30 40 47 46 44 41 38 36 37 41 45 48 51 53 52 50 49 54 57 54 57 65 65 60 59 61 63 64 66 68 70 73 76 78 79 78 72 65 65 69
12 13 13 13 13 14 17 18 19 24 27 26 24 22 21 20 18 19 21 22 21 21 21 21 21 23 25 26 28 30 30 29 30 32 35 37 37 37 37 36 34 31 29 29 24 25 32 31 28 34 39 41 41 37 35 35 36 38 43 47 51 53 51 48 51 57 58 56 57 61 63 58 55 62 68 67 68 68 68 68 69 71 72 70 65 65 69 73
13 16 17 16 15 16 19 19 18 21 22 22 22 19 20 22 19 18 19 19 20 20 20 21 23 24 26 27 28 28 30 32 32 32 37 39 39 37 34 32 31 26 24 23 20 24 31 28 24 28 32 35 34 29 28 32 34 37 43 47 49 49 45 44 52 56 56 60 57 52 57 60 56 60 66 65 65 65 64 65 66 68 69 65 64 68 75 80
14 17 17 17 17 19 21 19 19 21 21 22 23 20 20 22 21 19 18 18 19 19 19 22 24 27 29 29 28 28 32 34 32 33 38 39 40 38 33 29 28 24 23 21 18 21 26 24 23 27 31 32 31 28 28 31 34 37 43 46 46 44 43 45 52 54 54 60 59 51 53 57 54 56 61 63 66 66 65 66 68 68 65 64 68 76 82 86
14 15 16 17 18 20 21 20 19 20 20 23 24 20 20 21 19 19 20 20 19 19 20 22 25 28 32 32 30 31 33 32 32 34 38 38 38 37 32 28 26 24 23 23 20 19 22 23 26 28 29 30 30 30 30 31 35 40 44 44 41 41 47 53 55 55 54 57 56 52 52 52 53 59 63 65 67 68 68 69 68 66 65 68 76 84 86 86
13 14 14 15 17 18 19 18 19 20 21 21 20 18 20 20 18 20 21 20 20 21 22 24 26 30 34 34 33 32 31 30 30 32 35 35 35 35 30 27 28 27 25 24 23 19 17 20 26 29 27 29 31 31 30 32 37 42 44 42 39 43 53 58 57 56 56 54 53 53 54 55 58 63 64 66 70 70 69 66 63 64 68 74 81 85 84 80
12 13 13 15 17 18 18 17 19 23 24 21 18 18 19 18 19 22 22 20 21 22 23 26 28 31 34 35 33 32 30 30 31 31 32 32 31 30 27 26 29 29 26 26 26 24 22 23 28 29 25 26 29 29 30 33 37 42 45 42 41 47 55 59 58 56 56 55 55 57 60 61 61 62 63 67 69 68 64 61 61 65 70 74 77 78 75 71
12 12 12 13 16 18 18 17 19 20 19 17 18 19 18 18 20 20 19 18 21 23 24 27 28 30 33 33 32 32 31 31 32 31 30 30 30 29 26 26 27 26 27 30 28 28 29 27 28 30 25 24 27 28 31 36 36 38 42 41 42 50 53 55 58 55 53 57 61 62 64 63 62 64 65 65 64 62 61 62 65 66 68 70 70 67 65 64